GFSGL_sfc_dewp_105.txt.gz
Dewpoint
42 40 38 38 37 37 37 36 35 35 34 33 33 32 31 29 28 27 27 27 27 27 27 27 28 28 29 29 30 30 30 30 28 29 29 30 29 29 29 30 32 31 32
36 35 34 34 33 33 33 32 32 32 32 31 30 29 28 28 27 27 27 27 27 27 27 28 28 28 29 30 31 30 30 30 29 28 29 29 29 29 29 29 30 30 32
32 32 31 31 30 29 30 30 29 29 29 29 28 28 27 28 28 28 28 28 28 28 28 28 29 30 31 32 31 30 30 30 30 29 29 29 30 31 32 33 34 35 36
30 29 29 28 27 27 27 26 25 25 25 25 26 27 28 28 28 28 28 28 29 29 30 30 30 32 32 32 31 31 31 30 30 30 31 32 33 35 34 35 35 35 36
29 29 28 29 29 29 29 29 29 28 28 28 28 28 29 29 28 29 29 29 30 30 31 31 32 35 39 36 33 33 33 34 33 32 35 35 35 36 37 36 36 35 36
29 29 30 30 30 30 30 30 30 30 30 30 30 30 30 31 37 38 38 35 34 33 33 33 33 36 34 35 36 37 35 34 36 37 38 38 35 36 37 37 37 34 33
29 29 29 30 30 30 30 31 31 31 31 31 31 31 31 31 37 38 38 35 34 32 30 29 29 30 34 31 35 37 37 39 39 38 37 38 38 37 37 36 35 36 34
27 28 29 30 30 31 31 31 31 31 31 31 32 32 31 31 38 38 37 30 30 30 30 30 31 31 32 34 34 34 35 35 36 36 37 36 36 37 37 36 36 38 39
29 29 29 30 31 31 31 31 31 31 31 31 32 31 30 29 36 37 36 32 31 31 31 33 34 34 38 39 36 36 37 38 40 41 39 41 42 42 43 41 39 38 35
29 30 30 30 31 31 31 31 31 31 31 31 29 26 30 28 33 34 33 32 32 31 33 34 37 35 38 38 36 36 35 35 39 38 38 40 41 40 41 38 36 35 34
31 31 31 31 30 30 30 30 30 30 28 25 25 28 28 29 31 34 34 31 32 31 31 33 35 37 37 36 36 36 38 41 40 39 37 37 36 36 36 36 36 36 35
31 31 30 29 29 28 28 27 27 25 24 25 27 28 29 29 33 34 35 34 34 32 32 34 35 37 37 39 40 42 40 37 34 33 33 33 33 33 33 33 34 34 35
29 29 30 29 27 26 24 24 24 25 27 29 29 29 28 29 30 35 35 35 35 34 35 35 36 36 37 38 36 36 35 32 31 31 30 31 31 32 31 31 32 33 33
29 29 29 27 26 25 25 26 27 27 28 30 29 29 29 30 31 31 31 32 36 36 36 34 36 38 39 34 31 31 32 33 33 33 33 35 34 33 31 31 30 31 30
29 29 29 25 24 25 25 26 29 29 29 30 29 30 30 28 29 30 31 32 33 33 34 35 35 32 30 29 30 31 33 33 33 34 33 33 33 32 31 31 31 31 32
29 28 27 24 24 25 25 26 30 31 31 31 31 29 27 30 31 31 33 33 34 35 32 29 27 27 27 28 29 28 29 30 32 33 33 33 32 31 30 30 31 32 32
28 27 25 25 25 25 26 27 26 27 29 29 29 29 30 30 30 32 34 35 35 32 27 27 27 27 27 28 29 29 29 30 31 32 33 33 33 32 30 28 31 32 33
26 29 25 25 24 26 27 27 26 26 24 24 27 29 30 31 32 32 32 31 27 27 27 27 28 29 29 29 30 31 30 30 31 31 32 33 32 31 30 30 28 29 31
25 26 25 24 26 29 27 26 25 24 24 24 24 26 28 31 34 32 31 27 27 28 28 29 30 31 31 31 31 32 32 31 32 32 32 32 33 32 30 30 31 31 32
24 27 27 25 27 26 26 24 24 24 24 24 25 25 27 32 29 27 27 28 29 29 30 30 30 31 31 32 32 32 32 32 32 32 32 32 32 31 30 30 32 31 31
23 24 28 28 26 26 25 24 24 24 24 25 25 27 31 29 27 28 29 30 30 30 30 30 31 31 32 32 32 32 32 32 32 32 32 33 33 31 31 32 32 33 32
23 25 27 26 26 26 26 25 24 24 25 26 26 26 30 27 29 29 29 30 31 32 32 32 32 32 33 32 32 32 32 32 32 33 33 34 33 31 30 32 32 32 31
24 26 25 24 26 26 24 25 25 25 26 26 26 27 27 28 29 30 30 31 32 33 33 34 33 33 34 34 34 33 32 32 33 34 34 34 33 32 31 31 31 31 31
24 26 24 24 25 26 24 27 26 26 26 26 26 27 28 29 30 31 32 33 33 34 34 34 34 34 34 34 34 35 35 34 35 35 35 34 33 32 32 31 31 31 31
25 25 24 24 24 23 24 26 25 25 25 26 27 27 29 30 30 32 33 33 34 34 34 35 35 35 36 35 35 35 34 35 35 35 35 34 33 32 32 31 31 31 31
25 25 25 25 25 24 26 25 26 25 27 26 27 29 30 30 31 32 33 33 33 34 34 35 35 36 36 36 36 36 36 35 34 34 34 33 32 31 32 33 33 33 33

GFSGL_sfc_dewp_108.txt.gz
Dewpoint
49 51 49 48 43 42 40 38 37 37 36 35 34 32 31 31 30 30 29 27 27 27 27 27 27 28 29 29 30 30 29 29 28 29 29 30 29 29 30 31 32 31 32
36 35 35 35 35 34 33 33 33 33 33 32 31 30 29 28 27 27 27 27 27 27 27 28 28 28 28 29 30 30 30 30 29 28 29 29 29 30 29 29 31 31 32
33 32 31 31 30 30 29 29 29 29 29 29 28 28 27 28 27 27 27 27 27 27 28 28 28 29 30 31 32 31 31 31 30 29 29 30 30 30 32 32 33 34 35
29 28 28 27 27 27 26 26 26 26 26 26 27 28 28 28 28 28 28 28 28 28 29 29 29 30 30 32 32 32 31 31 31 30 30 30 31 34 34 34 34 35 35
28 28 28 29 29 29 29 29 29 29 29 29 29 29 29 29 28 28 29 29 29 30 31 30 31 34 39 37 34 34 33 32 33 33 34 34 34 33 36 36 36 35 36
29 30 30 30 30 30 30 30 30 30 30 30 30 30 30 31 37 38 37 34 34 33 33 33 33 38 38 40 38 38 35 32 35 36 37 37 36 37 37 35 36 36 32
29 29 30 30 30 30 31 31 31 31 31 31 31 31 31 31 38 39 39 35 34 33 33 31 29 29 34 32 35 38 37 38 37 36 36 37 37 37 35 35 34 34 34
28 29 29 30 31 31 31 31 31 31 31 31 31 31 31 31 37 38 38 31 31 30 30 30 30 30 31 34 33 34 34 34 35 35 35 36 36 36 37 37 37 37 38
29 29 30 30 31 31 31 30 31 31 30 30 31 31 29 28 35 36 34 32 32 31 32 31 32 33 38 38 35 35 36 36 39 40 40 41 41 42 42 41 38 37 36
30 30 30 31 31 31 30 30 30 30 31 30 27 26 30 28 33 36 34 32 31 31 32 32 37 34 37 36 34 34 33 34 35 36 38 39 40 40 40 38 38 36 35
31 31 31 30 30 30 29 29 29 28 26 24 25 27 28 29 31 35 35 31 30 31 32 33 33 36 37 36 36 36 36 38 40 40 39 38 38 37 37 36 36 35 34
30 30 29 28 27 26 25 25 25 24 25 26 27 28 29 29 33 34 34 34 34 31 32 34 35 37 37 39 40 39 38 36 36 33 32 32 33 33 35 35 35 35 36
29 29 29 28 25 25 24 24 25 26 27 27 29 28 29 29 30 35 34 34 35 33 34 34 35 36 37 37 38 38 35 31 30 29 30 30 31 32 33 33 33 33 33
29 29 27 26 25 24 25 26 27 27 27 28 29 29 29 30 29 30 30 31 35 36 36 34 36 37 37 34 32 30 30 31 31 31 33 34 35 34 34 33 32 31 31
29 28 24 24 23 24 25 25 28 28 29 30 29 29 27 27 26 30 32 32 32 33 35 36 33 31 28 28 28 29 30 32 29 30 31 32 33 32 32 33 32 31 30
28 26 27 24 24 24 25 26 30 31 31 30 29 28 27 30 31 32 33 34 36 36 33 28 26 27 27 27 28 29 30 29 29 29 30 33 32 32 32 32 32 30 28
28 26 25 25 24 24 26 26 25 25 27 29 30 30 31 31 31 32 34 35 33 31 27 27 27 27 27 28 28 29 30 31 32 32 30 31 32 33 32 32 30 30 30
25 30 24 24 24 26 27 25 24 24 23 24 27 30 31 32 33 33 32 31 27 28 28 28 28 28 29 29 29 29 29 30 31 32 32 31 32 32 31 30 30 29 28
25 25 24 24 27 27 25 24 24 24 24 24 25 27 29 32 34 31 31 27 28 28 28 29 29 29 30 30 30 31 31 31 32 32 31 32 32 33 31 31 31 31 31
23 28 27 27 26 25 25 24 24 24 24 25 24 25 27 33 28 27 28 28 29 29 30 30 30 30 30 31 31 31 31 31 32 32 32 32 32 32 31 30 29 29 30
23 26 30 26 25 25 25 25 24 24 24 25 26 27 32 30 28 28 29 30 30 30 31 31 32 32 32 32 32 32 32 32 32 32 32 33 34 32 32 31 30 30 31
23 26 27 25 26 26 26 25 24 24 25 26 25 26 30 28 29 29 30 31 32 33 33 33 33 33 33 33 33 32 32 32 32 33 33 34 34 34 32 31 30 31 31
24 26 24 24 25 27 25 25 25 25 25 26 25 25 26 28 29 30 31 33 33 33 34 34 34 34 35 35 35 34 32 32 34 35 34 34 34 34 32 31 30 30 30
25 25 24 24 26 25 24 25 25 25 24 26 27 27 27 29 30 31 32 33 34 34 35 35 35 34 35 36 36 35 35 35 35 35 35 34 34 33 33 32 31 31 31
25 25 24 24 25 23 24 25 24 23 24 26 27 28 28 29 29 31 33 34 34 34 34 35 35 36 36 36 37 36 36 36 33 34 34 33 33 33 32 32 31 31 31
25 25 25 25 24 24 24 25 24 24 25 26 27 28 29 29 30 32 33 33 33 34 35 35 35 36 36 37 37 37 38 38 37 37 35 34 33 32 32 32 32 32 32

GFSGL_sfc_dewp_111.txt.gz
Dewpoint
53 55 54 52 50 48 47 45 42 42 42 40 38 37 36 35 34 33 33 32 31 31 31 31 30 31 32 32 32 32 32 31 29 29 31 31 31 31 31 33 34 34 34
40 38 37 36 35 34 33 34 35 35 35 34 33 32 31 31 30 30 29 28 29 30 30 31 31 29 32 32 32 32 32 32 32 31 32 32 32 32 33 33 32 32 34
33 32 32 31 31 30 30 30 30 30 30 30 30 30 29 29 29 29 29 28 29 29 30 30 30 31 31 32 33 33 34 33 33 32 32 33 32 33 33 34 36 36 35
30 29 29 28 28 28 27 27 27 27 27 28 29 29 29 29 29 29 29 29 29 29 29 31 30 31 31 32 32 33 33 34 34 34 34 33 33 33 35 34 34 36 36
28 29 29 30 30 30 30 30 30 30 30 30 30 31 31 31 30 32 32 31 31 32 33 32 33 34 37 37 33 35 37 36 37 36 35 33 33 34 34 35 35 34 34
29 30 32 31 31 32 32 31 32 32 31 32 32 32 33 31 38 39 38 37 37 36 36 36 35 38 39 42 41 40 39 36 36 36 37 37 36 39 35 37 35 33 33
29 30 30 31 32 32 32 32 33 33 32 32 32 32 32 33 38 38 38 36 34 33 33 33 31 29 34 33 35 37 37 38 37 36 36 37 36 35 37 35 34 33 32
29 30 30 31 32 32 32 32 32 32 33 33 32 33 33 32 37 38 38 35 33 32 32 32 33 32 33 33 33 34 33 34 35 34 34 34 35 34 36 37 37 38 39
29 30 31 31 32 32 33 32 32 32 32 32 32 32 30 29 35 36 35 32 32 32 32 32 32 33 36 38 35 35 37 37 37 40 40 40 41 42 42 42 39 38 37
30 31 31 31 32 32 32 32 32 32 31 30 27 26 30 29 33 35 33 30 31 31 30 31 36 36 35 36 35 35 35 33 35 34 35 36 39 39 41 40 38 35 33
32 31 31 31 31 30 30 30 29 27 26 26 27 29 30 30 31 35 35 30 31 32 32 33 34 35 35 35 36 36 37 39 40 39 37 36 36 37 37 37 37 36 34
31 30 29 28 27 25 26 26 25 27 27 28 29 29 30 29 33 33 34 33 32 31 32 34 34 35 37 39 39 39 39 36 34 31 30 29 30 31 31 34 36 36 36
30 30 29 25 25 25 25 26 27 28 29 28 28 29 28 29 30 33 31 33 34 33 34 34 33 34 36 37 38 37 35 31 29 28 27 28 29 31 32 33 34 35 35
29 28 26 28 24 23 25 26 28 29 29 29 28 28 28 27 27 27 29 33 35 34 35 35 38 39 35 34 30 29 28 28 29 29 30 31 34 33 33 34 34 33 33
29 26 25 24 24 24 25 27 29 29 30 28 28 27 27 27 26 31 32 32 34 35 36 33 30 28 26 27 27 28 30 30 30 29 29 30 32 33 31 32 34 32 31
27 27 27 24 24 25 26 26 27 28 29 29 30 29 28 31 33 33 34 35 35 33 30 28 26 27 27 27 28 28 29 30 31 32 31 30 30 30 29 29 32 32 30
29 25 26 24 23 26 26 22 23 24 28 29 31 32 32 31 32 33 34 33 32 31 29 28 28 28 29 28 28 28 28 28 30 31 30 29 29 29 30 31 33 33 30
28 29 24 24 27 27 24 24 24 25 24 24 28 30 31 32 34 32 32 31 28 28 28 28 29 29 29 30 30 30 30 30 31 31 31 31 31 30 29 31 32 31 31
25 25 24 27 29 25 24 25 25 24 25 25 25 27 29 33 32 31 31 29 29 29 30 31 31 31 32 32 32 33 33 32 32 33 33 32 31 32 31 32 33 34 33
27 30 27 27 25 24 26 26 25 24 25 26 25 26 29 32 27 27 29 29 30 31 32 32 32 33 33 33 33 33 33 32 33 33 33 33 32 33 31 31 32 32 30
24 29 29 25 24 26 27 26 25 25 25 25 25 26 31 28 27 28 30 31 32 32 33 33 33 33 34 34 34 33 33 32 33 33 32 33 32 32 33 33 33 32 30
24 27 25 25 26 27 27 26 26 26 24 24 25 25 29 26 28 29 31 32 33 34 35 34 34 34 34 34 34 34 34 33 33 34 34 34 34 34 34 34 32 30 29
26 25 23 24 26 27 25 26 25 24 24 25 25 25 26 27 28 30 32 33 34 34 35 35 35 34 35 36 36 35 34 34 34 34 34 34 34 34 34 33 30 30 28
26 24 23 25 27 26 26 25 24 24 24 25 26 26 28 28 29 31 32 34 34 35 35 35 35 35 36 36 37 37 36 36 36 35 35 34 33 34 33 32 32 31 30
25 24 24 25 26 26 26 25 24 24 24 24 26 27 28 29 29 31 33 34 34 34 35 35 36 36 37 37 38 38 38 38 37 36 35 35 34 33 33 32 31 31 31
25 24 25 26 27 26 26 25 24 25 25 24 26 28 29 29 30 32 33 33 34 34 35 36 36 37 37 38 38 38 38 38 39 39 38 35 33 33 33 33 32 33 32

GFSGL_sfc_dewp_117.txt.gz
Dewpoint
51 53 51 49 50 50 49 51 53 52 52 50 49 49 48 47 45 43 40 38 38 38 37 37 35 34 35 37 38 36 34 34 31 31 30 28 28 31 32 34 35 34 34
42 39 39 39 42 40 38 40 44 47 49 48 48 47 45 45 42 39 38 35 35 35 33 33 31 28 35 36 35 34 33 32 32 31 32 33 32 33 33 34 32 30 33
37 36 36 37 36 35 34 35 36 36 38 39 38 37 35 35 34 32 31 30 29 29 30 30 31 32 30 33 33 33 34 31 34 33 33 33 34 35 35 34 33 33 32
33 33 33 32 32 32 31 31 30 30 30 30 30 30 30 29 29 29 29 29 29 28 29 30 29 30 30 32 31 33 31 34 34 33 34 34 34 36 35 34 34 35 34
31 31 31 31 31 31 31 30 30 30 29 30 30 30 31 30 35 37 35 34 33 31 32 31 32 34 37 39 38 38 38 36 36 37 36 36 36 35 34 34 33 34 35
30 30 32 31 31 31 30 30 30 30 29 29 28 29 30 29 39 39 38 35 33 32 33 33 33 36 35 38 39 40 39 39 39 39 39 38 37 36 36 34 34 33 33
29 29 30 30 30 29 29 30 31 30 29 29 29 30 30 33 38 38 38 35 33 33 32 32 31 29 34 31 34 36 36 38 38 36 34 33 31 30 31 32 34 35 34
28 28 28 28 28 28 29 30 29 30 31 31 30 31 31 33 36 36 37 32 30 30 30 30 30 29 30 30 31 30 31 31 32 30 32 32 31 32 33 33 34 38 39
27 27 27 27 28 30 31 32 31 31 31 30 29 29 27 27 32 33 34 29 27 27 27 28 31 31 34 36 35 36 36 36 37 39 39 39 40 40 40 40 40 39 37
28 27 27 28 29 31 32 33 32 30 29 27 25 24 26 25 29 33 33 31 29 29 29 29 33 33 36 37 34 35 34 33 32 33 35 37 38 38 41 39 38 37 36
28 28 29 30 30 31 32 30 29 26 26 24 23 24 24 27 28 32 33 30 27 27 27 29 30 33 35 36 36 35 36 37 38 40 39 39 39 39 35 36 36 38 38
29 28 28 29 27 27 29 27 24 25 24 24 24 25 25 25 29 30 32 32 32 31 31 31 31 35 36 39 39 39 39 38 35 34 33 32 33 32 30 30 31 34 35
28 29 28 27 25 24 21 22 23 24 25 24 24 24 25 26 27 30 31 34 35 33 33 34 37 39 37 36 37 35 35 32 31 29 29 29 29 31 31 32 32 33 33
27 27 27 25 21 19 22 23 24 24 24 24 24 26 28 28 28 29 31 35 35 34 36 37 35 34 33 31 30 30 29 29 31 33 33 32 33 35 34 35 35 35 34
26 25 25 23 19 20 22 24 24 23 27 26 27 28 28 28 28 34 35 34 36 34 34 32 30 30 29 29 29 29 30 30 31 32 32 32 32 33 32 34 35 35 34
24 24 22 20 20 21 21 22 27 26 27 29 30 30 30 32 34 35 35 34 34 33 31 29 28 28 28 29 29 29 29 30 30 31 32 32 32 31 31 30 31 33 32
24 23 22 21 19 22 21 19 21 27 29 29 29 30 30 32 34 34 33 33 32 31 29 27 29 30 31 31 31 32 33 34 34 34 33 32 32 32 31 31 31 32 32
24 27 22 21 23 23 20 21 23 24 23 24 30 28 29 32 34 32 32 30 29 30 30 32 33 33 33 34 34 34 34 34 34 34 34 34 34 33 33 32 33 32 32
24 22 22 24 26 24 22 23 24 23 24 25 27 27 28 32 32 30 31 29 31 32 33 33 34 34 35 34 35 35 35 34 35 34 33 33 33 34 32 33 33 32 33
26 26 24 25 25 22 24 25 24 24 24 24 25 26 28 31 27 27 29 30 31 33 34 34 35 35 35 35 35 35 34 34 34 34 34 33 33 33 33 33 33 32 32
27 27 26 23 22 24 26 26 26 26 25 25 26 26 29 29 26 28 30 32 33 34 34 34 35 35 35 35 35 35 35 35 35 34 35 35 34 34 33 34 34 33 32
28 28 26 24 25 26 27 26 26 26 24 24 25 26 28 27 28 28 31 33 34 35 35 35 35 35 36 36 36 35 35 35 36 36 35 34 35 35 35 34 33 33 32
26 26 23 24 26 27 26 27 26 25 25 24 24 25 26 27 27 29 32 34 34 35 36 36 35 36 36 37 38 38 37 37 37 37 36 35 34 34 34 33 34 33 32
25 24 22 24 27 27 26 27 26 24 24 23 24 25 27 28 28 31 32 34 34 35 35 36 36 36 36 37 37 37 38 38 36 37 37 37 36 35 34 34 33 34 34
26 22 22 25 28 27 27 26 25 25 24 24 24 25 28 29 29 30 32 34 34 34 34 35 36 35 35 36 36 36 37 36 36 37 37 37 36 35 36 34 34 34 34
25 23 23 25 28 27 27 26 25 25 24 24 24 25 29 29 30 31 32 32 32 33 33 35 35 35 35 35 36 36 37 37 37 38 37 37 37 37 37 36 35 34 34

GFSGL_sfc_dewp_123.txt.gz
Dewpoint
50 50 51 51 52 52 52 53 52 52 51 50 48 48 47 46 46 45 44 40 39 37 36 35 34 34 36 36 35 34 32 33 33 35 34 32 30 31 31 33 34 32 33
45 42 41 43 45 47 48 50 50 50 49 48 48 48 48 48 48 47 44 39 38 36 35 33 31 31 31 31 32 31 33 33 33 31 31 31 31 31 32 32 32 32 33
36 36 35 36 36 37 39 48 49 49 49 49 48 48 46 44 43 39 37 34 31 31 31 30 29 29 29 31 32 32 33 34 33 32 32 33 33 33 32 33 32 33 33
32 32 32 31 31 31 31 31 31 31 32 31 32 36 38 37 37 36 35 34 33 33 32 31 30 30 30 30 35 36 36 35 35 35 34 34 34 34 34 34 34 33 34
31 31 31 31 31 31 31 30 30 30 30 31 32 36 37 37 37 37 36 35 34 33 34 33 35 37 38 36 36 36 36 36 35 34 34 35 35 35 35 35 35 35 34
31 31 32 32 31 31 31 29 29 29 29 30 31 36 37 37 41 41 37 34 33 32 32 32 31 34 35 35 35 36 35 34 35 37 37 36 33 34 35 35 35 32 30
31 31 31 31 30 30 30 31 30 30 30 30 32 36 36 36 39 38 38 32 31 29 28 29 29 31 34 30 35 37 37 38 37 34 32 30 31 33 32 30 30 30 29
30 29 29 29 30 30 30 30 31 31 30 30 29 34 35 35 36 36 36 31 30 29 30 30 30 30 31 34 33 34 34 34 35 35 35 34 33 34 34 37 38 36 36
28 27 28 30 31 32 31 30 30 29 27 26 27 29 32 32 34 36 33 31 29 28 29 29 30 29 33 34 32 34 34 34 36 38 38 39 40 41 40 39 37 37 37
27 27 30 32 33 32 31 30 28 27 26 25 24 25 30 27 32 33 33 30 28 29 29 30 33 32 34 34 35 35 34 34 35 36 39 40 38 38 40 37 37 36 36
29 30 31 32 32 30 29 26 25 25 24 24 25 26 26 27 28 32 33 30 30 31 31 31 31 36 39 38 37 35 35 37 34 35 35 34 35 36 37 37 37 36 36
30 30 30 30 29 28 25 24 24 25 24 24 25 26 27 27 31 34 34 34 34 32 32 32 34 36 34 35 34 36 36 33 31 30 30 31 32 31 32 33 34 34 36
29 29 28 26 23 23 22 24 25 25 25 25 26 27 28 29 30 33 34 36 36 36 34 35 33 33 34 33 33 33 31 30 30 30 30 30 31 32 33 34 34 34 34
28 28 26 22 19 21 24 24 25 25 25 26 28 28 29 29 29 31 32 34 35 34 34 31 32 32 31 30 30 31 31 31 31 30 30 30 31 32 31 32 31 32 31
27 27 25 24 20 22 25 25 27 26 25 26 28 28 28 28 30 33 36 34 34 33 32 31 29 28 29 30 31 32 32 32 33 33 32 30 30 31 30 31 31 31 31
27 26 25 21 21 24 25 23 29 29 31 31 32 30 30 30 32 35 33 34 33 34 30 29 28 30 31 32 32 33 34 35 34 35 33 32 32 32 29 30 31 30 31
27 25 26 23 22 23 23 24 24 28 31 32 31 29 29 30 32 34 32 32 31 31 30 30 32 31 31 33 34 34 34 35 36 35 35 34 33 31 29 28 29 29 29
26 31 25 24 25 24 22 23 24 26 26 27 32 30 28 29 32 32 32 30 30 30 31 32 32 33 34 34 34 34 35 35 35 35 35 35 34 33 32 32 31 29 28
29 27 25 26 26 25 24 24 25 24 24 27 27 27 28 28 30 30 30 30 31 31 32 33 34 34 35 35 35 35 35 35 36 36 35 35 35 34 33 33 32 33 33
28 29 28 27 27 24 25 25 25 24 24 24 25 25 26 31 29 27 29 31 33 33 34 34 34 35 35 35 35 35 35 35 35 35 36 35 35 35 33 34 33 32 32
29 30 31 26 24 25 26 26 26 25 25 24 25 26 27 29 28 29 30 31 29 34 34 34 34 34 35 35 35 35 35 35 35 35 34 36 35 34 33 34 34 34 33
28 30 28 27 26 27 27 27 26 26 25 24 25 26 26 27 29 30 31 32 33 34 35 34 34 33 34 35 35 34 33 33 34 36 36 35 34 33 34 34 34 34 34
27 28 26 26 27 29 28 27 26 26 25 25 25 25 26 28 29 30 31 32 33 34 35 34 32 32 34 34 34 34 34 34 35 36 35 34 34 33 35 34 34 34 33
28 27 26 26 28 28 26 26 27 27 24 24 25 25 26 28 30 31 31 31 33 34 31 30 32 33 33 34 34 35 36 37 37 36 36 35 34 35 35 35 34 35 35
28 26 26 27 29 27 28 27 26 25 24 24 24 25 26 29 29 29 31 32 32 32 29 31 32 33 34 34 35 35 37 37 36 37 37 36 36 35 35 34 35 35 35
27 25 26 27 27 27 26 26 25 25 24 25 25 25 26 28 28 29 29 30 31 29 29 31 31 31 33 34 35 36 36 35 35 35 34 33 31 31 33 34 34 35 35

GFSGL_sfc_dewp_129.txt.gz
Dewpoint
53 53 53 53 53 53 53 53 53 51 50 50 51 50 50 49 49 47 47 45 44 43 40 41 38 36 37 36 36 35 34 34 31 31 33 32 30 31 31 32 34 32 33
50 51 51 52 52 51 51 51 50 50 50 50 50 49 48 47 47 47 43 41 41 37 36 36 35 34 34 33 33 32 32 32 32 30 31 32 32 32 32 32 33 32 33
42 43 45 48 49 49 49 48 48 48 48 47 47 45 42 41 41 40 41 39 37 35 33 32 32 31 30 31 32 33 34 34 33 32 32 33 34 33 33 34 34 34 35
36 37 37 37 38 39 41 40 38 39 39 37 37 36 36 35 34 34 33 33 33 32 31 30 30 30 29 32 34 34 35 35 34 33 33 33 33 34 34 33 33 35 35
32 32 31 31 31 31 31 32 34 36 36 37 37 37 37 35 34 34 33 33 33 32 32 34 36 36 39 36 35 35 34 33 33 32 31 32 32 32 31 32 32 33 33
30 30 31 30 30 30 30 31 33 34 36 37 37 38 37 38 40 39 34 31 30 31 30 30 35 35 35 35 35 39 36 33 31 32 31 31 30 31 31 31 31 31 32
30 30 30 30 29 29 30 31 32 33 35 36 36 36 36 37 40 38 35 29 28 28 29 30 29 32 34 33 35 36 35 34 33 32 30 30 30 31 31 30 34 36 36
30 29 29 30 30 30 30 30 30 31 33 34 34 34 33 37 38 37 36 30 29 29 29 30 29 28 29 33 32 32 31 32 34 34 34 35 35 35 35 38 38 37 34
29 29 29 30 30 30 30 30 29 29 29 32 34 32 31 33 37 35 32 29 28 28 29 30 30 29 33 34 32 32 35 35 36 38 38 37 36 36 35 35 32 33 31
29 29 30 30 31 30 30 28 27 26 26 30 27 28 32 30 36 35 31 29 29 29 30 31 34 34 36 38 39 37 34 33 33 31 32 32 33 32 35 33 33 32 32
29 30 31 31 31 30 29 27 26 25 24 25 26 27 26 29 30 33 33 30 30 30 31 32 32 37 38 36 36 34 36 33 31 29 29 30 31 31 31 32 32 32 32
30 32 32 31 31 28 26 25 24 24 25 25 26 26 28 29 33 33 31 33 35 33 33 33 35 35 35 35 33 33 33 31 30 29 29 28 29 29 30 31 32 33 33
31 31 31 31 28 26 24 24 25 25 25 25 26 27 28 29 29 34 34 35 36 35 34 34 34 34 32 31 31 30 32 30 31 29 30 30 31 30 29 30 31 30 31
30 31 30 29 27 24 24 25 25 25 25 26 27 27 27 28 28 30 31 34 34 32 33 32 31 31 31 30 31 32 33 33 34 33 32 32 32 32 31 30 31 31 31
29 29 28 27 26 23 24 26 26 25 27 27 27 28 28 27 28 33 35 35 35 34 33 29 28 28 30 31 32 34 35 35 35 35 35 35 34 33 33 31 32 31 30
28 28 26 25 23 24 25 27 30 29 32 32 32 30 30 31 33 32 36 33 32 33 31 27 26 29 30 31 32 32 33 34 36 36 36 36 35 35 34 34 33 32 31
28 27 26 24 23 25 26 27 27 29 32 33 34 33 33 32 30 31 35 33 30 31 29 28 31 32 32 32 32 33 34 34 34 36 35 35 34 32 35 34 33 33 33
28 32 27 24 25 26 25 26 29 30 30 30 33 32 32 30 29 30 34 31 29 30 30 32 32 33 33 33 34 34 33 32 33 33 33 34 34 34 32 33 32 32 33
29 30 27 25 26 27 25 25 27 29 29 29 30 32 31 30 28 31 32 30 31 31 32 33 34 35 35 34 34 35 35 35 35 35 35 33 32 33 32 34 34 33 33
30 33 29 25 26 26 25 25 25 26 26 26 28 28 27 28 27 27 29 31 31 29 34 34 34 35 35 35 34 34 34 35 34 33 33 33 31 33 33 34 32 32 33
31 32 31 26 26 25 25 25 26 25 25 26 26 27 30 27 27 27 29 31 31 31 32 33 33 32 33 33 33 33 33 32 33 33 33 32 33 34 35 32 32 33 32
31 31 29 27 27 26 26 26 26 26 25 26 26 27 31 27 27 27 29 31 32 33 34 34 33 33 32 32 32 32 32 32 32 32 32 33 35 35 32 32 33 33 33
31 30 27 27 27 28 27 27 27 26 26 26 26 26 27 26 27 27 28 28 32 32 33 34 31 29 30 33 33 34 33 32 33 34 33 34 34 34 34 33 33 32 33
30 28 27 27 27 28 27 27 27 28 26 25 26 26 26 26 26 27 26 27 27 27 28 31 27 30 32 32 34 34 35 35 36 35 34 33 32 32 31 30 30 31 32
30 28 27 27 29 28 28 27 27 27 26 25 25 25 26 26 27 27 27 30 31 29 27 26 28 32 32 32 32 32 33 35 33 32 31 31 32 32 32 32 32 32 32
29 28 28 28 29 29 29 27 27 27 25 25 25 25 25 26 25 25 25 28 29 25 26 26 27 29 30 30 31 32 33 33 34 36 36 35 34 34 34 33 33 33 33

GFSGL_sfc_dewp_132.txt.gz
Dewpoint
53 53 53 53 53 53 53 52 51 51 51 51 51 50 50 49 48 47 47 46 45 43 41 43 39 37 37 37 37 36 35 34 34 32 33 32 31 33 33 33 34 34 34
52 52 52 52 52 51 51 51 51 50 50 50 50 50 49 48 48 47 46 44 43 39 39 38 36 35 34 34 34 33 33 33 32 29 31 32 32 33 33 33 34 33 34
47 49 50 50 50 50 49 49 49 48 48 47 46 43 41 42 41 40 40 39 36 35 35 34 34 32 31 32 33 34 34 34 33 32 32 33 34 34 34 35 34 34 35
41 42 42 43 44 44 42 41 41 40 39 37 37 36 36 35 34 34 34 33 32 32 32 31 30 30 31 33 33 34 35 34 33 33 33 33 34 34 34 33 32 34 33
36 37 35 35 36 37 38 38 37 37 36 36 36 36 36 35 33 33 33 33 33 33 34 35 32 34 38 37 35 35 34 33 33 32 32 32 32 32 31 32 32 32 33
32 31 31 31 31 33 34 35 36 36 37 37 37 38 38 37 41 39 33 31 31 31 32 33 34 36 38 38 40 39 36 33 32 32 32 31 30 30 31 31 31 31 33
30 30 30 30 30 31 33 34 34 35 35 35 36 36 37 37 40 38 35 28 28 29 30 30 29 33 34 32 37 37 35 34 34 32 30 30 30 32 32 32 35 37 36
29 29 29 29 29 30 31 32 32 33 33 34 33 34 36 37 39 38 36 29 28 29 30 29 28 28 29 32 31 31 31 31 34 34 33 34 34 37 37 37 38 36 36
29 29 29 29 29 30 30 30 30 31 32 32 32 32 33 35 37 36 31 29 28 28 29 30 30 29 33 36 32 31 32 34 36 37 36 36 36 36 35 33 31 32 30
29 29 29 30 30 30 30 29 28 28 30 32 30 30 35 32 36 34 31 29 29 29 30 31 35 34 37 38 39 37 33 32 32 31 30 31 32 33 35 32 31 29 29
29 30 30 30 30 30 29 27 26 26 27 25 26 27 28 29 31 35 34 30 30 30 31 31 33 37 36 36 36 35 36 33 32 29 29 29 29 30 30 31 31 31 30
29 30 31 31 30 29 27 26 25 24 25 25 26 26 27 28 34 33 32 33 35 32 32 33 34 35 36 35 34 32 35 33 30 29 29 30 29 29 29 30 30 31 31
30 31 31 31 30 27 26 24 24 24 25 25 26 26 27 29 30 35 35 34 36 34 34 34 35 35 33 31 32 29 33 30 31 29 29 30 30 31 30 29 30 30 30
29 31 31 30 28 25 25 25 25 25 25 25 26 26 27 28 28 29 30 32 35 32 32 32 31 33 32 31 31 31 33 33 34 34 33 34 34 33 33 32 30 31 31
29 30 30 30 28 24 25 25 26 25 26 26 26 27 27 27 28 31 33 34 35 34 33 30 28 27 29 30 32 33 34 35 35 35 36 36 35 36 35 35 33 33 31
29 30 30 29 26 24 25 26 31 29 33 32 32 30 29 31 32 33 33 36 32 32 33 28 27 27 29 30 31 32 33 34 35 35 36 36 35 35 33 34 35 34 31
29 29 30 29 26 25 25 26 27 30 33 33 33 33 32 33 32 30 31 34 31 31 29 28 29 31 31 32 32 33 33 34 35 35 34 34 34 34 33 32 32 34 31
29 34 29 27 27 26 26 26 27 29 30 30 34 34 33 31 30 29 30 33 29 30 30 31 32 32 33 33 34 34 34 33 33 32 33 33 33 33 33 31 32 33 33
29 31 29 27 27 27 26 26 29 30 30 30 30 32 32 32 30 29 33 30 31 31 32 32 33 34 35 35 34 34 34 34 35 35 36 34 34 32 31 32 32 35 32
30 33 30 27 27 26 25 26 28 29 29 29 29 30 28 30 27 27 28 29 31 31 31 34 34 33 33 34 34 35 34 35 35 33 32 32 32 32 32 34 33 31 31
31 33 32 27 27 26 25 25 25 27 27 27 27 29 32 28 27 27 27 28 31 31 31 32 33 33 32 32 32 32 32 32 32 32 32 32 32 33 34 34 32 31 33
32 33 30 28 28 26 26 26 26 26 26 26 26 27 32 29 27 27 27 28 30 32 34 34 33 34 33 32 31 32 32 32 32 32 32 32 33 34 34 33 33 33 33
32 32 29 28 28 28 27 26 26 26 26 26 26 26 28 28 27 27 28 27 27 28 32 33 34 31 29 30 32 33 32 32 33 34 33 33 32 32 32 31 31 31 29
32 31 28 28 28 28 27 27 27 27 26 26 26 26 27 27 27 27 27 26 26 26 25 28 29 27 30 32 33 34 34 34 34 35 34 32 31 30 31 31 31 31 31
32 29 28 28 29 28 28 27 28 28 27 26 26 26 26 27 27 27 26 25 26 28 27 25 27 29 31 31 31 30 31 33 33 34 34 34 33 33 33 33 33 33 33
30 29 28 28 29 28 29 29 29 29 27 26 26 26 26 26 26 26 26 26 26 28 25 26 26 27 28 29 30 31 30 30 31 34 34 33 33 33 33 33 34 33 33

GFSGL_sfc_dewp_138.txt.gz
Dewpoint
55 55 55 55 55 54 54 53 52 52 52 51 51 51 51 50 50 49 48 47 47 47 47 47 45 44 43 42 42 41 40 42 40 34 35 34 35 35 35 36 36 35 35
54 54 53 53 53 53 53 53 52 52 51 51 51 50 50 50 50 49 49 49 48 46 45 44 41 38 38 38 38 36 35 35 37 33 34 35 35 35 35 36 34 31 32
51 51 52 51 51 51 52 52 51 51 50 50 50 49 48 48 48 47 46 46 45 43 42 39 37 36 35 36 36 35 37 36 37 36 35 36 36 36 35 33 31 31 30
50 49 48 47 47 46 46 47 47 47 47 45 43 41 40 40 39 39 37 35 35 35 36 36 35 35 34 35 35 36 37 38 36 36 35 35 35 35 33 31 31 33 33
47 45 44 44 44 43 42 41 41 39 38 37 36 36 36 36 35 36 36 35 34 34 33 32 34 36 39 37 36 38 38 37 36 35 34 33 31 30 30 34 34 34 34
45 44 44 44 44 44 44 43 41 40 38 38 37 37 37 37 42 40 37 36 37 37 39 40 41 43 42 42 41 39 37 37 35 33 33 32 30 32 34 34 34 33 31
47 46 45 45 44 43 41 40 39 38 37 36 36 36 37 38 41 40 38 35 36 36 37 38 36 36 38 40 41 40 37 36 36 33 31 32 32 34 34 33 33 33 32
42 43 43 42 41 41 40 38 37 37 37 36 35 35 37 37 39 38 36 33 33 33 33 33 33 33 34 33 33 31 30 32 35 33 35 34 34 35 33 33 33 33 32
36 37 38 38 37 36 36 36 35 35 34 33 33 33 33 34 37 35 31 29 30 31 31 32 31 30 34 36 33 32 31 34 38 38 36 35 34 34 35 33 32 31 30
32 32 33 33 34 35 36 35 33 32 33 33 32 32 34 32 36 34 29 27 29 29 29 30 36 35 37 38 35 34 34 34 32 32 32 33 32 32 33 32 31 31 31
31 31 32 32 33 33 33 33 33 31 31 31 32 33 32 33 35 36 33 31 30 31 31 31 32 36 38 39 35 35 35 34 34 32 32 32 31 31 31 32 32 33 32
31 31 31 31 29 30 32 32 31 31 29 29 29 30 30 32 35 37 37 34 34 31 32 32 33 36 36 36 34 38 37 33 30 30 29 29 29 29 29 30 31 32 32
31 31 30 29 29 30 30 30 30 29 28 26 27 27 28 28 31 35 35 35 36 32 31 33 33 33 32 31 31 33 34 31 29 28 28 28 29 31 30 31 30 31 32
30 30 29 29 29 29 29 29 29 28 27 26 26 26 27 28 31 35 33 34 35 33 34 32 31 31 31 31 32 34 31 31 30 32 31 31 32 32 31 32 33 33 33
30 29 29 29 30 29 29 29 29 27 29 27 27 27 28 27 28 32 31 29 32 32 34 32 31 29 28 29 29 30 32 32 32 33 32 32 31 32 30 31 32 32 31
29 29 29 29 31 30 30 29 30 29 32 30 31 30 28 28 32 34 33 35 36 35 31 30 29 29 28 28 29 30 31 31 32 34 33 32 31 30 29 28 29 31 30
31 30 31 31 31 30 30 29 29 31 34 34 34 33 31 31 33 34 35 35 36 33 31 30 29 29 29 30 31 31 31 32 33 33 32 31 31 30 31 31 29 30 29
33 37 32 33 32 31 30 30 29 29 29 31 35 34 34 33 34 34 33 33 32 31 31 31 30 29 30 31 32 32 32 33 33 33 32 32 35 36 32 29 30 30 30
35 34 34 35 35 33 31 30 29 29 30 30 32 34 34 34 34 33 32 31 32 31 30 30 30 31 32 35 35 34 35 35 34 33 35 35 33 31 30 30 31 31 32
36 37 37 36 35 33 32 30 29 29 28 28 30 31 33 34 31 29 30 32 31 31 31 31 31 32 32 32 32 32 32 30 31 31 31 30 30 30 31 31 31 32 33
38 37 38 35 34 34 33 32 30 29 28 28 29 32 34 33 30 30 30 31 32 31 31 31 32 33 33 33 32 32 30 29 31 31 31 31 31 31 31 32 34 34 30
38 37 37 36 35 34 33 32 31 30 28 28 29 31 35 32 30 30 30 31 32 32 32 32 32 32 34 34 33 31 29 29 30 30 31 31 31 30 33 31 29 29 30
36 36 36 34 34 34 33 32 32 29 28 28 29 30 34 33 31 31 31 32 33 33 32 32 32 32 31 30 29 30 31 30 31 32 32 31 30 30 31 31 30 31 30
36 36 36 34 34 33 32 31 30 30 28 28 30 30 30 32 32 32 32 32 32 32 32 32 31 31 30 29 30 32 33 32 30 30 30 30 30 31 31 30 31 33 33
37 36 35 34 34 33 32 31 30 28 28 29 30 29 28 30 31 32 33 33 32 32 30 31 31 30 29 28 28 28 30 30 30 31 30 30 30 30 30 30 30 29 28
37 35 34 33 34 33 33 32 30 30 30 31 30 28 28 30 31 33 33 32 32 31 30 31 30 28 26 26 26 28 30 30 30 31 32 32 31 30 29 28 27 27 27

GFSGL_sfc_dewp_141.txt.gz
Dewpoint
55 55 55 54 54 53 53 52 53 53 52 52 52 51 51 51 50 49 48 47 47 47 47 47 45 45 45 45 45 44 44 44 43 36 37 35 35 36 37 39 38 38 38
54 54 53 53 53 52 53 53 52 51 51 51 51 51 51 51 51 50 49 48 47 47 48 47 44 44 43 43 42 39 37 37 39 34 35 36 37 38 37 37 35 32 35
52 52 52 52 52 52 52 52 51 50 50 50 50 49 49 50 50 49 49 49 48 47 46 45 42 41 38 37 37 37 38 37 38 37 37 38 39 39 37 36 34 34 31
50 50 49 48 48 49 49 50 50 50 48 46 44 42 42 43 44 44 43 42 41 40 39 38 37 36 35 36 36 37 38 39 38 38 37 37 37 38 37 34 34 37 36
48 47 47 46 45 45 43 43 43 42 42 41 39 38 38 37 36 37 37 36 35 34 34 35 36 37 39 38 37 39 40 39 39 38 37 36 34 35 34 36 36 36 35
47 46 46 45 45 45 43 42 40 40 40 40 39 39 40 39 42 41 39 37 37 37 36 37 39 42 42 41 40 39 39 39 38 36 36 34 33 33 36 35 34 34 32
46 46 45 45 45 44 44 42 42 41 39 39 38 38 38 40 42 41 41 39 39 39 40 41 38 39 43 40 41 40 38 37 37 34 33 33 33 33 34 33 34 34 33
47 46 45 44 43 43 42 41 40 38 38 37 36 37 38 38 41 39 38 37 36 36 36 37 37 36 36 36 37 34 31 33 36 33 35 34 33 34 34 32 33 34 34
42 42 42 41 41 41 40 38 37 36 35 33 33 34 34 35 37 35 31 30 31 32 31 32 31 31 34 35 33 33 31 33 39 38 37 35 35 34 35 35 33 32 32
39 39 38 37 37 37 37 36 35 33 32 31 31 31 34 32 34 32 27 27 28 28 28 32 36 36 34 36 35 34 33 34 33 32 34 34 34 34 33 33 32 32 31
34 33 33 33 34 34 35 33 32 31 32 31 31 31 30 32 34 34 33 29 30 30 30 31 34 35 38 38 37 35 36 35 35 32 31 31 31 31 31 31 31 32 31
32 31 30 31 30 31 33 32 30 31 30 30 30 30 31 33 37 36 35 34 34 31 31 32 35 37 37 36 35 37 36 34 32 29 29 29 29 29 30 30 32 32 32
31 31 29 29 28 30 30 31 30 30 29 28 28 29 28 30 33 38 36 35 34 32 32 35 34 34 33 32 31 34 35 33 30 29 28 30 30 31 30 32 32 31 32
31 30 28 27 27 27 29 29 30 29 28 28 28 29 29 29 31 35 35 35 35 33 34 33 32 31 31 31 32 35 32 31 30 31 31 31 33 33 31 32 33 33 33
31 30 28 27 27 27 28 29 30 28 31 30 30 30 30 29 29 35 33 30 31 33 33 31 31 29 28 29 31 32 33 32 32 34 32 32 33 33 32 31 32 33 32
31 30 30 29 30 29 29 29 35 36 36 34 36 34 29 30 34 34 33 34 35 35 31 30 30 28 28 29 30 31 32 32 33 33 34 33 32 31 30 29 29 31 30
33 31 31 32 30 31 31 31 31 31 34 33 33 32 31 31 35 35 34 36 36 34 31 30 29 29 28 30 32 33 33 32 33 34 33 32 31 31 32 33 31 30 30
35 39 33 33 33 33 32 32 32 31 31 31 35 34 33 34 34 35 36 34 35 33 32 33 32 31 31 32 33 33 34 34 34 34 33 33 34 34 32 32 31 31 31
36 35 35 36 36 35 34 33 32 31 31 31 34 35 35 34 35 35 34 31 34 34 33 33 32 33 33 34 33 34 34 32 34 34 33 33 33 34 32 32 32 31 31
38 39 37 37 36 35 34 33 32 31 31 32 33 33 33 35 33 32 31 32 33 34 34 34 33 33 34 35 34 34 34 32 32 32 32 32 32 32 31 32 33 33 32
40 39 38 38 37 36 35 34 32 33 32 31 32 33 35 34 32 32 32 34 35 34 34 33 34 34 34 34 34 34 32 31 32 32 32 32 32 32 32 33 32 32 31
40 40 38 38 38 37 36 34 33 33 31 30 31 34 36 34 34 34 33 33 34 35 35 35 34 34 35 34 33 32 31 30 31 32 32 32 31 31 31 31 31 32 31
40 40 38 38 38 38 36 35 34 32 31 30 31 33 35 35 34 33 34 34 35 35 34 34 34 32 32 32 31 32 31 31 32 32 32 31 29 29 31 31 31 31 31
40 39 39 38 38 37 36 35 34 33 30 30 32 34 35 35 35 34 34 34 35 34 35 34 33 31 30 30 31 32 33 33 31 30 29 27 29 29 30 30 30 30 30
40 39 39 38 38 37 36 35 34 31 30 31 31 33 34 34 34 34 34 35 35 34 33 33 32 30 28 28 29 29 31 30 28 30 31 30 30 30 30 30 29 27 27
40 39 38 37 37 37 36 35 33 31 31 31 32 34 33 33 33 35 35 34 34 34 33 33 30 28 27 27 26 28 29 29 29 30 32 32 31 31 30 29 28 28 28

GFSGL_sfc_dewp_144.txt.gz
Dewpoint
55 54 54 53 53 53 53 53 52 52 52 52 52 52 51 51 50 50 49 48 48 47 47 46 45 45 46 46 46 46 47 47 46 37 36 34 34 35 36 37 38 35 37
54 53 53 53 53 52 51 52 52 52 52 51 51 51 51 51 51 50 49 48 48 47 47 46 45 46 45 45 45 43 43 40 40 35 34 35 36 36 35 36 35 33 32
52 52 52 52 52 52 52 52 51 50 51 51 51 51 51 51 51 51 50 49 48 47 46 45 44 44 42 39 38 36 36 37 37 36 36 37 37 37 35 34 33 31 32
50 49 49 50 50 50 50 50 49 48 47 45 44 43 44 47 48 48 48 47 44 42 42 41 39 38 36 36 36 37 37 38 37 37 36 36 36 36 35 34 33 35 35
48 48 47 47 45 45 44 44 44 42 41 40 39 38 38 38 38 38 38 37 37 36 36 36 37 38 40 38 37 38 38 38 37 36 35 34 33 33 31 34 34 34 34
47 46 46 45 43 42 41 40 40 40 40 40 40 40 39 40 44 42 38 35 34 34 35 38 40 42 41 41 42 41 40 36 35 34 33 31 31 32 33 33 33 33 32
46 46 45 45 44 42 41 41 40 40 39 38 39 39 40 40 44 43 42 39 40 41 41 40 40 42 42 40 42 40 38 37 35 32 32 33 32 33 33 32 31 32 32
46 46 45 45 44 43 42 40 39 38 37 37 37 38 39 40 42 42 42 37 36 37 37 37 37 36 37 39 38 36 35 36 37 35 34 34 34 35 34 34 32 33 34
46 44 43 42 42 42 40 38 38 36 35 35 36 36 35 35 38 37 35 32 32 31 34 36 36 33 36 36 34 31 31 37 39 39 36 35 34 34 34 34 31 32 31
42 42 41 41 40 39 38 36 35 33 32 33 33 33 37 33 35 34 32 30 29 29 32 32 39 37 36 36 36 35 32 35 34 34 34 34 33 34 33 33 32 30 31
40 39 38 37 37 36 35 33 32 32 31 32 31 31 31 33 34 37 38 30 30 30 31 33 36 36 39 38 37 37 36 36 35 32 31 31 30 29 33 31 30 31 30
36 34 34 34 34 34 33 32 31 32 31 31 30 32 33 34 37 37 38 37 37 32 32 35 36 38 37 36 37 38 36 35 33 30 29 29 29 30 30 30 30 31 31
32 32 32 31 32 32 32 31 31 31 31 31 31 31 32 36 37 38 37 36 36 34 35 37 36 34 32 33 31 31 36 33 31 29 29 29 30 31 31 32 32 33 32
31 30 30 29 30 30 31 31 32 31 30 30 30 30 29 31 35 36 36 35 36 35 35 34 33 32 30 30 31 34 33 32 31 32 33 32 32 33 32 32 33 33 33
30 29 29 29 29 28 30 31 32 30 32 30 30 30 30 28 32 37 37 34 35 35 34 33 31 30 29 29 32 33 33 33 32 34 33 32 33 33 33 32 31 31 31
30 29 29 29 29 29 31 33 40 40 41 38 38 32 32 34 37 38 37 37 37 35 32 31 29 29 28 28 28 30 32 32 33 34 34 34 33 32 31 31 31 31 31
31 30 30 31 29 30 31 31 30 34 37 39 37 38 36 36 37 37 36 37 36 34 30 30 29 30 29 28 31 32 32 33 33 34 34 33 33 32 33 32 32 32 31
32 38 31 31 31 32 31 32 32 30 30 32 35 34 35 36 36 36 35 37 35 34 32 30 30 30 30 31 33 34 34 35 34 34 34 34 34 34 32 32 32 31 30
34 34 33 34 34 34 33 33 33 31 31 32 33 34 34 36 36 36 37 34 34 33 32 32 32 31 31 32 34 34 34 33 33 33 33 33 32 33 32 32 32 31 32
36 38 37 34 36 34 34 33 33 31 31 32 33 33 34 34 34 34 34 34 33 34 33 33 32 32 32 32 34 33 33 33 33 32 32 32 32 32 32 32 33 33 31
38 39 39 35 36 35 34 33 33 32 31 33 33 34 35 34 34 34 34 33 34 34 33 33 32 31 32 32 32 32 33 32 32 32 32 32 32 32 32 33 32 31 31
40 39 37 37 37 36 35 34 33 33 32 33 33 34 36 34 34 33 34 34 34 35 34 32 31 32 31 31 32 32 33 31 32 32 32 32 32 32 32 31 32 32 32
40 39 37 38 38 38 36 34 34 33 32 32 32 34 35 34 34 34 35 34 34 33 33 33 31 32 32 31 32 32 32 31 32 35 32 31 29 29 30 32 31 29 29
41 39 38 38 38 37 36 35 34 33 31 31 33 34 35 34 34 35 34 33 32 32 31 30 30 32 31 30 31 32 33 33 33 31 30 29 28 28 29 30 29 30 29
41 39 38 38 38 37 36 35 33 32 31 31 33 34 35 34 35 34 33 32 31 30 29 28 29 30 28 28 31 31 32 31 30 29 30 30 31 31 31 31 31 29 28
40 39 38 38 37 36 36 34 33 31 31 31 32 34 34 35 34 32 31 31 29 29 29 28 30 28 28 28 27 28 29 28 28 29 31 31 31 31 31 31 30 30 28

GFSGL_sfc_dewp_147.txt.gz
Dewpoint
54 54 53 53 53 53 53 53 53 53 54 53 52 52 51 50 50 50 49 48 47 47 47 45 45 46 46 47 48 48 48 48 46 41 39 35 34 34 36 37 38 35 34
53 53 53 52 52 52 52 52 52 52 52 52 52 51 51 51 51 50 50 49 48 47 47 47 47 48 47 47 47 45 46 45 46 41 35 34 35 35 35 36 34 33 32
52 52 52 52 52 52 52 52 52 51 51 51 51 51 51 51 51 51 50 50 49 49 48 47 47 46 45 43 42 38 37 37 38 36 35 37 37 37 35 34 33 31 33
50 50 50 51 50 50 50 50 50 49 49 48 49 50 51 51 51 51 50 50 49 48 47 46 44 43 39 36 36 36 37 37 36 37 37 36 37 36 35 33 33 35 35
48 48 47 47 47 46 46 43 42 42 42 41 41 41 42 43 45 46 46 44 43 40 38 37 38 39 41 38 37 38 37 37 37 36 36 34 33 32 31 34 33 33 34
47 46 45 43 42 41 41 40 40 40 40 40 40 40 41 42 45 44 39 37 36 35 36 39 41 43 42 42 42 42 39 36 35 34 33 32 31 33 33 33 32 32 31
46 45 44 43 42 41 41 40 40 39 40 40 40 40 41 42 45 44 42 39 40 40 41 41 41 42 42 41 43 41 38 39 37 33 32 32 32 32 32 31 31 31 31
46 46 45 43 42 41 41 39 38 38 38 38 39 39 40 42 44 44 44 38 39 38 37 38 39 38 40 39 37 35 35 36 35 34 34 34 34 34 33 33 32 32 33
46 45 45 43 42 40 38 37 37 37 37 37 36 36 36 38 43 42 36 33 32 34 37 35 34 34 38 38 33 32 37 38 40 39 36 34 34 34 33 32 31 30 30
46 44 43 42 41 39 38 36 35 35 35 35 34 34 37 32 39 39 34 31 31 32 31 37 39 37 37 37 36 35 34 35 34 34 34 31 31 33 34 32 31 29 29
43 42 42 41 39 37 35 33 32 32 32 33 33 32 32 33 36 37 36 29 29 30 32 35 35 38 39 37 39 35 35 36 36 32 31 31 30 31 33 32 29 31 29
41 40 39 37 36 34 32 32 31 31 31 30 31 32 34 35 39 39 40 38 36 33 34 35 36 39 36 36 36 38 38 36 33 30 30 29 28 30 30 30 30 31 31
37 36 36 35 33 32 31 31 31 31 31 31 32 32 33 35 36 39 39 39 38 35 35 37 37 35 33 33 32 32 36 33 31 29 28 28 29 30 31 32 32 32 33
34 33 33 33 32 31 31 31 31 31 31 31 31 32 34 35 36 36 35 36 39 37 37 35 33 32 31 30 30 35 33 32 32 32 32 33 32 33 32 32 33 32 32
31 31 31 33 32 31 31 31 31 30 32 31 31 30 32 32 35 37 36 34 34 34 34 32 31 29 29 29 32 33 34 33 32 33 34 32 33 33 33 33 31 31 30
30 30 30 31 30 31 32 35 38 36 40 38 37 32 31 33 39 40 39 38 38 38 32 30 29 28 27 27 27 30 32 31 33 33 33 34 34 33 32 32 32 32 33
30 29 30 30 29 31 32 32 33 37 42 41 40 38 37 37 40 40 39 38 38 35 30 29 29 28 28 28 29 31 32 31 32 32 33 33 33 33 33 32 32 33 31
30 36 30 30 30 31 31 31 32 31 30 33 41 38 41 42 42 40 38 37 35 33 31 30 29 29 28 28 30 32 34 34 34 34 35 35 34 33 31 31 33 31 30
32 32 31 31 32 32 32 31 31 30 30 31 33 36 39 39 38 37 37 36 34 34 33 32 31 30 30 30 31 32 32 31 31 33 32 33 33 32 30 31 32 31 32
34 37 35 33 33 33 33 32 31 31 30 31 32 32 34 36 34 35 37 35 34 34 33 33 32 31 31 32 32 32 31 31 32 32 32 32 31 31 32 32 32 32 30
37 36 37 34 34 33 33 33 32 32 31 31 31 33 36 34 34 35 35 34 34 33 32 31 30 31 31 31 31 31 30 31 32 32 32 32 32 32 33 32 31 31 32
38 37 36 35 36 35 34 34 33 32 32 32 33 34 37 34 35 35 33 35 35 33 33 31 31 31 29 29 30 28 29 32 32 32 33 34 33 32 31 32 32 33 31
39 38 37 36 36 37 35 34 33 32 32 33 33 34 35 35 34 33 35 35 34 32 32 31 29 29 29 30 31 31 32 31 32 35 32 29 28 28 28 29 30 29 28
39 38 37 37 37 36 35 34 33 34 32 33 33 34 35 34 34 35 35 34 32 31 30 28 28 28 29 29 31 32 33 34 34 31 30 29 29 29 29 30 30 31 31
40 38 38 38 38 36 36 34 33 32 32 32 33 35 35 34 34 35 34 32 29 29 28 28 27 28 29 29 31 31 33 31 30 29 30 28 29 30 29 30 31 30 30
40 38 38 38 37 36 36 34 33 32 31 32 34 34 34 33 34 34 33 30 28 28 28 27 27 27 27 28 28 30 29 28 28 27 29 30 29 29 29 30 30 29 28

GFSGL_sfc_dewp_150.txt.gz
Dewpoint
54 54 54 54 54 54 53 53 54 54 54 53 52 52 52 52 52 52 51 49 47 46 46 45 46 47 47 48 48 48 48 48 45 42 40 35 33 34 37 37 37 34 35
53 53 52 52 52 52 52 53 53 53 53 53 52 51 51 51 52 51 50 49 48 46 47 47 47 48 48 48 48 47 47 47 47 45 36 35 35 35 35 35 34 33 32
52 52 52 52 52 52 52 52 52 52 52 52 52 51 51 51 51 51 51 50 50 50 49 49 48 47 47 46 45 42 42 40 38 38 35 37 38 37 35 34 33 33 35
51 51 51 50 51 51 51 49 49 50 50 51 51 51 51 51 51 51 51 50 49 49 49 48 48 47 44 40 37 37 37 37 36 37 36 36 37 36 35 32 32 35 34
49 49 49 49 47 45 44 43 44 44 43 45 46 47 49 50 50 49 49 48 47 45 44 42 41 42 43 39 38 37 37 37 37 36 36 34 33 32 31 34 33 33 33
48 46 45 44 43 42 42 41 41 41 41 41 41 42 44 47 51 49 45 43 41 39 38 40 42 43 43 43 42 41 39 36 34 34 33 32 31 32 33 33 32 31 30
46 45 44 43 42 41 41 41 40 40 40 41 42 43 43 44 47 46 42 37 38 40 40 41 42 42 42 42 43 42 40 40 37 33 32 31 31 32 32 31 30 30 30
45 44 43 43 42 41 40 39 39 39 39 39 40 41 42 43 46 45 44 40 39 38 40 40 39 39 40 37 34 35 35 35 34 33 33 33 33 33 33 32 31 30 31
45 45 43 42 41 39 38 37 37 38 38 37 38 39 40 42 46 45 38 35 35 35 35 36 36 38 42 41 35 35 36 37 39 40 37 36 35 35 35 31 30 29 29
46 45 44 42 39 38 37 37 36 36 36 36 35 35 40 39 43 42 36 33 33 34 36 36 39 36 38 39 34 35 35 35 35 33 32 32 31 31 35 31 31 28 28
46 44 42 41 39 37 36 35 35 35 34 33 34 32 32 35 37 40 38 31 31 31 34 34 35 38 38 39 38 34 35 36 36 32 31 31 29 31 33 33 30 30 29
44 43 41 39 38 36 34 32 33 33 32 31 30 32 34 36 38 38 37 34 35 32 34 35 37 39 36 36 37 39 38 36 32 31 30 29 29 29 30 30 30 31 32
42 41 39 37 35 33 32 31 32 32 31 30 31 31 33 35 37 39 39 38 38 35 35 38 37 35 34 33 33 34 35 33 31 29 28 29 29 30 31 32 33 32 32
40 39 37 35 33 31 31 31 32 31 31 32 32 32 33 34 35 35 37 38 39 38 38 35 34 32 32 30 32 34 33 32 32 32 32 33 33 33 32 32 32 32 31
38 37 36 35 32 31 31 32 32 31 32 32 32 33 33 33 35 36 36 35 35 35 34 32 30 29 29 29 32 33 34 33 32 33 34 33 33 33 33 32 31 30 29
36 35 35 35 32 31 31 32 36 36 38 37 37 35 35 36 40 39 38 38 37 38 33 30 29 29 27 27 27 28 31 30 32 33 32 32 32 33 32 32 32 31 31
35 33 34 34 31 31 32 32 33 38 42 41 39 38 37 37 41 41 40 39 39 38 31 30 29 29 28 28 27 29 30 32 31 31 31 32 33 33 35 32 31 33 31
33 37 33 32 32 32 32 33 34 34 34 36 42 39 39 39 42 42 40 39 36 33 31 31 29 29 28 28 30 30 33 33 32 33 34 35 35 33 31 31 31 29 30
32 33 32 32 32 33 32 32 32 31 32 33 35 39 40 42 43 41 40 36 34 33 33 32 30 30 29 29 30 31 31 30 30 32 32 31 33 33 31 30 31 31 32
33 36 34 32 33 32 32 31 31 30 30 32 33 33 37 39 37 35 37 36 34 35 35 31 31 30 30 30 30 30 30 29 29 31 31 31 31 30 30 30 31 31 29
35 35 35 32 32 32 32 31 31 30 30 30 32 33 38 35 35 35 36 35 32 34 34 31 30 30 30 30 30 29 29 29 32 31 31 31 31 31 33 31 29 30 32
36 35 34 33 34 33 32 32 32 31 31 30 31 33 38 34 35 35 36 35 36 35 32 30 29 29 29 29 30 28 27 31 32 32 30 33 31 29 28 28 30 31 29
37 36 35 35 34 35 34 33 33 32 31 32 32 33 35 35 35 35 35 36 35 34 31 30 28 29 29 29 30 30 29 31 32 33 30 28 27 27 28 27 28 29 29
38 36 35 36 36 35 34 33 33 33 32 32 33 33 35 35 35 35 35 35 34 32 29 28 28 28 28 28 30 32 32 33 33 31 30 28 25 28 28 29 29 30 31
38 37 36 36 37 35 35 33 33 33 32 33 33 34 35 35 34 34 35 34 32 29 28 27 27 28 27 27 31 32 33 32 31 30 28 25 26 27 28 28 29 29 30
39 38 37 37 37 35 35 34 33 32 32 32 33 34 34 33 32 32 34 33 30 28 28 27 27 27 27 27 29 30 29 27 26 26 27 29 28 29 29 29 29 29 26

GFSGL_sfc_dewp_153.txt.gz
Dewpoint
54 54 54 54 54 54 53 54 54 54 54 54 55 56 57 56 56 55 53 52 50 49 49 48 48 48 48 48 48 48 48 47 44 41 40 35 34 36 39 38 37 34 37
53 53 52 53 53 52 52 53 53 53 53 53 53 53 53 54 54 53 51 51 49 48 48 48 48 48 48 48 48 48 48 48 47 44 38 36 35 35 36 35 34 32 32
52 52 52 52 52 51 52 52 52 53 53 53 52 52 52 52 52 52 51 50 49 48 48 48 49 49 48 47 47 46 46 45 43 42 36 36 38 37 35 33 33 34 35
52 51 51 51 51 50 49 49 50 51 52 52 52 51 51 51 51 51 51 50 51 50 50 50 49 49 47 45 44 42 41 40 37 37 36 37 37 35 34 33 33 34 33
50 50 49 48 46 45 45 45 45 46 48 50 50 51 51 51 51 50 50 49 48 48 47 46 45 46 47 43 40 38 37 37 37 36 36 35 33 32 31 34 32 32 33
49 48 46 44 44 43 43 42 42 43 44 46 46 48 50 51 53 51 49 47 46 44 43 45 48 48 45 44 42 41 38 35 34 34 33 31 31 32 32 32 31 30 29
46 45 44 43 43 42 42 42 41 41 42 43 44 46 48 51 52 50 48 42 41 42 42 42 42 43 43 41 44 43 42 42 38 32 31 31 31 31 31 30 29 29 29
46 44 44 42 42 40 40 40 40 40 40 42 42 43 44 46 47 46 44 39 39 40 40 40 40 40 38 35 36 35 34 33 34 33 33 33 33 32 32 31 30 29 30
46 44 43 42 40 40 40 38 38 38 38 38 40 41 42 43 46 45 39 37 37 37 37 38 39 40 42 40 34 34 35 36 39 40 39 37 35 36 35 31 30 29 29
46 44 43 41 40 39 38 37 36 37 37 37 37 39 44 42 44 43 37 35 34 35 36 37 40 38 40 38 33 34 34 35 34 32 31 32 32 32 35 31 30 28 28
46 44 42 40 38 38 36 36 36 35 35 34 32 33 36 39 40 41 39 33 34 35 35 35 37 40 39 40 37 34 35 36 36 31 32 31 30 31 33 33 31 30 30
45 43 41 39 38 36 35 34 34 33 33 31 31 33 35 36 40 39 38 36 36 33 34 35 38 38 37 37 38 39 39 37 33 31 30 29 29 29 30 30 30 31 32
44 42 40 38 36 35 34 33 32 32 31 30 31 32 33 36 36 38 38 39 39 35 36 38 37 37 35 34 35 38 35 33 31 29 28 29 29 30 31 32 33 32 32
43 41 38 36 34 33 33 33 32 31 30 30 30 31 33 34 35 36 37 38 39 38 38 36 34 33 33 33 34 34 32 33 33 32 32 33 33 33 32 32 31 32 30
42 40 37 37 34 32 32 32 32 31 31 30 30 31 32 33 34 37 37 36 36 36 34 31 29 29 28 29 30 31 32 32 31 33 33 32 33 33 32 32 32 30 29
41 39 37 36 33 32 32 32 35 35 37 36 36 33 34 36 40 40 40 40 39 38 32 30 29 28 27 27 27 27 29 30 32 32 31 31 32 32 32 32 33 32 30
41 39 37 35 33 32 32 32 32 37 39 39 39 39 38 39 40 39 39 39 38 37 30 30 29 28 28 28 27 28 29 30 30 30 30 31 33 33 33 32 31 32 30
39 41 37 34 33 32 32 32 33 34 34 35 40 39 40 40 42 42 40 39 36 35 30 29 29 29 28 28 28 29 30 31 31 32 32 34 35 34 31 31 30 28 28
37 37 35 34 34 33 32 33 33 33 33 33 35 40 40 41 43 42 41 36 35 32 31 31 31 29 28 28 29 30 30 29 29 30 30 30 31 31 30 29 29 31 31
36 38 36 33 34 33 33 32 32 32 32 32 34 34 37 40 39 39 37 36 35 34 34 33 31 29 29 29 29 29 29 29 29 29 31 29 29 30 30 31 30 30 28
36 36 36 33 33 32 32 32 31 31 31 32 33 35 40 38 38 37 37 36 35 35 35 34 30 29 29 29 29 29 28 28 29 31 31 29 30 31 32 31 29 30 31
35 35 34 33 33 33 32 32 31 30 30 31 31 34 41 35 36 36 36 36 35 35 35 33 28 29 28 28 29 27 27 30 33 32 31 32 30 29 28 27 28 29 29
35 35 33 33 33 34 33 32 31 31 30 30 31 32 38 35 35 36 36 36 36 35 34 29 28 28 29 29 29 30 29 31 32 32 30 28 27 25 28 28 29 28 29
36 35 34 34 34 33 33 32 32 32 31 31 31 32 35 36 35 34 34 36 35 33 31 28 28 28 28 28 29 31 32 32 33 32 30 27 26 26 27 27 27 27 28
37 36 35 35 35 34 34 33 32 32 31 31 32 32 34 35 33 33 33 33 34 32 28 27 27 28 27 27 29 32 33 33 31 29 28 27 27 26 27 28 28 28 28
37 36 36 36 36 35 34 33 32 32 32 32 32 33 34 33 32 32 32 32 30 28 28 27 27 27 27 27 28 30 29 26 26 25 28 28 28 28 27 27 27 28 27

GFSGL_sfc_dewp_156.txt.gz
Dewpoint
54 54 54 54 54 53 53 54 54 54 54 55 56 58 57 57 56 56 56 55 53 52 51 50 49 49 48 48 47 47 47 46 44 41 39 35 36 38 40 39 39 36 40
53 53 53 53 53 52 53 53 54 53 53 53 55 56 57 56 56 54 54 53 52 51 51 50 49 49 49 49 49 48 48 49 48 43 41 40 39 39 38 35 34 32 33
52 52 52 52 52 51 52 52 53 53 53 52 53 54 54 54 53 53 53 52 51 51 51 50 49 49 49 49 48 47 47 47 46 45 41 41 40 37 34 34 35 35 34
51 51 51 51 49 49 49 49 51 52 52 52 52 52 53 52 52 52 51 50 50 50 50 50 50 49 48 47 47 45 45 44 43 42 39 37 37 35 35 33 34 34 33
50 50 49 47 46 45 46 46 47 49 51 51 51 51 52 51 51 51 51 50 50 50 49 49 49 50 50 48 45 43 42 40 38 37 36 35 34 34 32 34 33 33 33
49 46 45 45 44 44 43 43 44 46 48 49 50 51 52 53 53 52 50 48 47 47 46 48 50 50 49 47 44 41 38 36 35 35 34 32 31 32 32 32 31 31 29
47 45 44 44 44 44 43 43 43 43 45 46 48 50 51 52 53 52 49 46 46 46 46 45 43 44 42 42 44 44 42 41 37 32 31 31 31 31 31 30 30 30 29
46 45 44 43 42 42 42 41 41 41 42 44 45 46 47 48 49 48 45 41 40 40 40 40 39 37 37 36 33 33 33 33 33 33 32 32 33 32 32 31 30 30 30
46 44 43 42 42 41 40 40 39 40 41 41 42 43 44 44 46 45 41 38 37 37 39 40 40 40 41 39 34 35 35 36 39 40 40 38 36 39 35 31 30 29 29
46 45 43 42 41 40 38 37 36 37 38 40 40 41 44 41 45 44 39 37 35 36 36 38 42 40 40 39 34 34 33 34 33 31 30 32 34 36 35 30 29 27 28
46 44 42 41 40 38 36 36 36 36 35 35 36 36 38 40 41 42 41 35 35 36 35 36 38 41 40 40 37 34 35 35 35 31 31 31 31 32 34 32 31 31 30
45 43 41 39 39 37 37 35 35 34 33 33 33 34 35 38 42 41 41 40 39 34 35 36 37 39 38 39 40 40 39 38 33 31 30 29 29 29 30 30 30 31 32
44 42 40 38 37 36 36 34 34 32 32 32 33 33 34 35 36 40 39 39 39 36 36 38 38 35 36 36 39 37 35 31 30 29 29 29 29 30 31 32 32 32 32
44 41 38 36 35 35 34 34 33 31 30 31 32 32 33 34 35 36 37 38 40 39 38 34 34 35 35 35 33 33 32 32 31 31 31 33 33 33 32 33 31 32 31
43 40 38 38 34 33 33 33 32 31 31 30 30 32 33 33 35 38 38 36 35 36 33 30 29 28 28 28 29 30 30 30 30 31 31 31 32 32 32 33 32 31 30
41 40 38 35 34 33 33 33 35 35 36 34 35 34 34 38 41 42 41 40 40 37 31 29 28 28 27 27 27 26 28 30 30 30 29 29 30 30 31 34 35 31 29
42 39 39 35 33 33 33 33 32 36 38 38 37 37 37 40 41 41 41 40 40 35 30 29 28 28 28 27 27 27 28 29 29 30 29 32 32 32 34 32 31 32 29
41 42 38 35 34 33 33 32 33 34 34 34 39 39 40 40 41 40 40 39 36 35 31 29 29 29 28 28 28 28 29 30 30 31 30 31 31 32 30 31 30 29 30
41 39 37 36 35 34 33 32 33 33 33 33 35 39 40 41 41 41 40 35 33 34 32 29 31 29 28 28 28 29 29 29 29 30 29 29 30 30 29 29 30 30 31
40 40 38 35 35 33 33 32 32 32 32 32 33 34 36 39 38 37 36 35 34 35 33 31 32 29 29 28 29 29 28 28 28 28 28 28 28 30 30 31 30 28 29
40 39 38 35 34 33 33 32 32 32 31 31 32 35 39 36 36 35 35 35 34 35 32 33 32 29 29 29 29 29 28 28 28 30 32 29 31 31 29 28 27 28 30
38 38 36 36 34 34 33 32 32 31 31 31 31 34 41 35 36 35 35 35 36 35 33 34 31 29 28 28 29 27 27 28 31 31 30 30 27 26 27 27 28 28 28
38 36 35 35 34 35 34 32 31 31 31 31 31 34 38 35 34 34 35 34 35 34 33 32 28 28 29 29 29 30 29 28 30 30 29 27 25 25 28 27 27 26 26
37 35 34 34 34 33 32 32 31 32 30 30 31 33 36 35 34 34 33 34 34 32 30 31 28 28 28 29 29 29 31 30 31 30 28 27 27 27 27 27 26 27 27
37 35 34 34 34 33 33 32 31 31 30 30 30 32 34 34 33 33 32 32 31 29 28 28 27 28 28 28 29 31 33 33 30 29 28 27 26 26 27 26 26 27 27
36 35 34 34 34 34 33 32 31 31 31 31 31 31 33 33 32 32 32 31 30 28 28 27 27 27 27 27 28 31 31 27 26 24 27 27 27 26 26 26 26 27 26

GFSGL_sfc_dewp_162.txt.gz
Dewpoint
57 56 56 55 55 55 55 55 55 55 55 56 57 57 58 59 60 61 60 58 57 56 55 54 52 52 52 52 52 52 50 50 45 44 43 40 40 44 42 44 42 46 47
55 55 55 54 54 54 54 54 55 55 55 55 56 57 57 58 59 59 58 56 54 54 52 52 52 52 51 51 51 51 51 51 49 45 44 43 43 44 43 40 35 35 41
54 53 54 53 54 54 54 54 53 53 54 54 55 56 58 57 57 57 55 54 53 53 52 52 52 51 50 51 51 50 51 50 50 47 44 44 43 43 40 39 38 37 35
53 52 52 51 51 52 53 52 53 53 53 53 54 54 54 55 54 54 54 53 53 53 52 52 52 51 50 50 50 49 49 48 48 46 43 42 42 41 41 39 37 37 35
52 51 49 49 50 49 50 50 51 52 53 53 53 53 53 53 53 52 52 52 51 51 51 51 51 52 52 51 48 48 47 46 45 43 41 38 36 36 36 36 36 36 35
51 49 48 48 49 48 49 49 50 51 52 53 52 52 53 53 54 53 52 51 50 50 50 51 52 52 51 50 47 45 43 40 38 39 38 38 36 37 37 37 36 35 34
49 48 47 47 48 48 47 48 48 49 51 51 52 52 52 53 54 53 51 49 48 48 47 47 46 46 46 44 45 44 42 42 40 37 36 35 34 35 35 35 35 35 33
47 47 47 46 46 46 47 46 46 47 48 49 50 51 51 51 52 51 49 45 44 43 42 42 43 41 39 36 34 33 32 33 33 31 33 33 32 32 33 33 33 34 34
47 46 46 45 45 45 46 46 46 46 46 47 48 48 48 48 49 48 44 43 42 42 42 41 40 38 40 38 36 36 35 36 40 41 40 38 36 34 33 33 31 31 30
46 45 45 45 44 44 44 45 45 45 44 45 45 46 47 45 46 46 45 42 42 41 40 41 43 41 41 38 35 35 35 35 34 34 33 34 34 35 32 29 29 28 27
46 45 45 44 43 44 44 44 44 43 44 43 43 43 43 43 43 44 45 40 38 37 36 37 39 40 40 39 36 36 36 35 35 32 31 30 29 30 31 31 30 30 29
45 45 44 42 43 44 45 44 44 43 42 42 41 41 41 41 43 43 42 40 39 35 35 36 39 41 41 40 39 41 40 36 34 32 31 29 28 28 28 29 30 31 31
45 44 43 42 43 44 43 43 42 41 41 39 37 37 36 38 40 42 42 41 39 36 35 39 41 40 39 38 38 37 34 34 33 31 29 28 28 29 28 30 32 33 33
44 43 42 42 43 42 42 41 41 39 38 36 35 34 35 36 36 38 39 39 39 35 36 33 36 37 36 34 32 32 31 31 30 29 29 29 29 29 29 31 32 32 31
43 42 41 42 42 41 41 41 40 37 37 35 33 33 34 34 34 38 38 36 33 34 32 31 31 30 29 29 29 30 31 30 29 29 29 28 29 29 29 32 31 31 30
42 41 42 43 42 42 40 38 39 39 39 40 40 36 34 38 41 41 40 38 37 34 31 31 31 29 28 28 27 28 30 30 30 30 29 28 28 29 29 32 30 30 29
43 41 42 43 42 41 40 38 36 37 39 40 40 40 41 41 41 41 41 39 37 34 31 31 32 31 30 29 29 29 29 31 31 31 29 28 29 28 28 28 27 28 27
43 44 42 44 42 40 39 36 34 31 31 35 40 41 43 43 42 41 41 38 34 33 33 34 34 32 31 30 31 31 31 31 31 31 30 29 29 28 27 27 27 28 29
43 43 43 44 42 40 37 33 32 31 30 32 36 40 43 43 42 42 41 37 38 36 35 34 35 33 32 32 32 33 32 31 31 31 30 29 28 28 28 28 28 27 28
44 44 45 44 41 39 36 33 33 33 32 32 31 35 39 41 38 37 37 36 38 39 37 35 36 34 34 35 34 34 33 31 31 30 29 29 28 28 26 27 26 26 26
45 44 45 43 41 39 37 34 33 33 33 34 34 36 40 37 35 37 37 35 38 38 37 36 37 36 35 35 34 33 31 31 31 30 28 27 26 26 26 26 25 26 25
46 45 45 44 42 40 38 35 34 33 33 34 35 37 42 36 37 38 37 38 39 38 39 39 38 37 36 36 34 32 31 31 30 29 29 27 26 25 23 23 24 24 24
46 45 45 44 42 41 39 36 34 33 33 33 35 36 38 36 37 38 40 40 40 39 38 39 38 36 35 34 33 34 32 31 30 30 28 27 24 24 24 24 23 24 23
46 45 45 43 42 40 39 38 35 34 33 32 33 34 37 37 37 39 40 41 41 39 39 39 37 36 34 33 32 33 32 31 31 29 27 25 25 25 24 24 23 23 24
46 45 44 43 42 41 40 38 36 34 33 32 32 34 37 37 38 39 41 42 41 39 38 38 37 34 31 31 31 31 33 32 29 28 27 25 25 24 24 23 23 24 24
46 44 44 43 42 41 40 39 38 36 34 32 33 35 38 38 38 40 41 41 40 38 37 37 36 33 29 29 29 32 33 30 26 25 27 27 25 25 24 24 23 23 24